Weather History for KOTH - November, 2012

Change the Weather History Date:

Thursday, November 29, 2012

  Actual Average Record
Temperature  
Mean Temperature 56 °F 46 °F  
Max Temperature 61 °F 52 °F 69 °F (1929)
Min Temperature 50 °F 41 °F 28 °F (1985)
Degree Days  
Heating Degree Days 9 19  
Month to date heating degree days 380 468  
Since 1 July heating degree days 1279 1434  
Cooling Degree Days 0 0  
Month to date cooling degree days 0 0  
Year to date cooling degree days 1 2  
Growing Degree Days 5 (Base 50)    
Moisture  
Dew Point 49 °F    
Average Humidity 88    
Maximum Humidity 100    
Minimum Humidity 62    
Precipitation  
Precipitation 0.67 in 0.39 in 2.18 in (1932)
Month to date precipitation 8.27 9.82  
Year to date precipitation 43.16 53.37  
Sea Level Pressure  
Sea Level Pressure 29.56 in    
Wind  
Wind Speed 11 mph (SSE)    
Max Wind Speed 21 mph    
Max Gust Speed 32 mph    
Visibility 9 miles    
Events      
T = Trace of Precipitation, MM = Missing Value Source: NWS Daily Summary

Daily Weather History Graph

Daily Weather History Graph

Search for Another Location

Airport or City:

Trip Planner

Search our weather history database for the weather conditions in past years. The results will help you decide how hot, cold, wet, or windy it might be!

Date:

Astronomy

Nov. 29, 2012 Rise Set
Actual Time 7:28 AM PST 4:42 PM PST
Civil Twilight 6:56 AM PST 5:14 PM PST
Nautical Twilight 6:20 AM PST 5:50 PM PST
Astronomical Twilight 5:46 AM PST 6:24 PM PST
Moon 5:50 PM PST (11/29) 8:19 AM PST (11/29)
Length of Visible Light 10h 18m
Length of Day
9h 14m
Full, 99% of the Moon is Illuminated
Nov 29
Full
Dec 6
Last Quarter
Dec 13
New
Dec 19
First Quarter
Dec 28
Full

Hourly Weather History & Observations

Time (PST) Temp. Dew Point Humidity Pressure Visibility Wind Dir Wind Speed Gust Speed Precip Events Conditions
12:15 AM 55.4 °F 46.4 °F 72% 29.61 in 10.0 mi SSE 10.4 mph - N/A   Unknown
12:35 AM 53.6 °F 46.4 °F 77% 29.60 in 10.0 mi SSE 8.1 mph - N/A   Unknown
12:55 AM 55.4 °F 46.4 °F 72% 29.59 in 10.0 mi South 8.1 mph - N/A   Unknown
1:15 AM 55.4 °F 46.4 °F 72% 29.58 in 10.0 mi South 8.1 mph - N/A   Unknown
1:35 AM 57.2 °F 44.6 °F 63% 29.59 in 10.0 mi South 8.1 mph - N/A   Unknown
1:55 AM 57.2 °F 46.4 °F 67% 29.58 in 10.0 mi South 8.1 mph - N/A   Unknown
2:15 AM 59.0 °F 44.6 °F 59% 29.57 in 10.0 mi SSE 9.2 mph - N/A   Unknown
2:35 AM 57.2 °F 44.6 °F 63% 29.57 in 10.0 mi SSE 5.8 mph - N/A   Unknown
2:55 AM 57.2 °F 44.6 °F 63% 29.56 in 10.0 mi South 6.9 mph - N/A   Unknown
3:15 AM 57.2 °F 44.6 °F 63% 29.55 in 10.0 mi South 8.1 mph - N/A   Unknown
3:35 AM 60.8 °F 44.6 °F 55% 29.55 in 10.0 mi South 20.7 mph 24.2 mph N/A   Unknown
3:55 AM 57.2 °F 48.2 °F 72% 29.55 in 10.0 mi South 15.0 mph 23.0 mph 0.02 in   Unknown
4:15 AM 55.4 °F 48.2 °F 77% 29.57 in 10.0 mi South 13.8 mph 19.6 mph 0.03 in   Unknown
4:35 AM 55.4 °F 50.0 °F 82% 29.58 in 10.0 mi South 10.4 mph 20.7 mph 0.06 in   Unknown
4:55 AM 53.6 °F 51.8 °F 94% 29.62 in 10.0 mi South 16.1 mph 32.2 mph 0.11 in   Unknown
5:15 AM 53.6 °F 51.8 °F 94% 29.63 in 10.0 mi South 15.0 mph 24.2 mph N/A   Unknown
5:35 AM 53.6 °F 51.8 °F 94% 29.61 in 10.0 mi SSE 18.4 mph 24.2 mph N/A   Unknown
5:55 AM 51.8 °F 51.8 °F 100% 29.60 in 7.0 mi SE 20.7 mph 25.3 mph N/A   Unknown
6:15 AM 51.8 °F 51.8 °F 100% 29.59 in 10.0 mi SSE 17.3 mph 24.2 mph N/A   Unknown
6:35 AM 51.8 °F 50.0 °F 94% 29.61 in 10.0 mi SSE 16.1 mph - N/A   Unknown
6:55 AM 51.8 °F 50.0 °F 94% 29.62 in 10.0 mi SSE 13.8 mph - 0.11 in   Unknown
7:15 AM 51.8 °F 50.0 °F 94% 29.62 in 10.0 mi SE 15.0 mph 20.7 mph 0.03 in   Overcast
7:35 AM 51.8 °F 50.0 °F 94% 29.62 in 10.0 mi SSE 17.3 mph 25.3 mph 0.06 in   Overcast
8:15 AM 51.8 °F 50.0 °F 94% 29.63 in 10.0 mi SSE 13.8 mph - 0.01 in   Unknown
8:35 AM 51.8 °F 50.0 °F 94% 29.63 in 9.0 mi SSE 8.1 mph - 0.02 in   Unknown
8:55 AM 51.8 °F 50.0 °F 94% 29.64 in 10.0 mi SSE 11.5 mph 16.1 mph 0.02 in   Unknown
9:15 AM 51.8 °F 50.0 °F 94% 29.63 in 10.0 mi SSE 12.7 mph - N/A   Unknown
9:35 AM 51.8 °F 48.2 °F 88% 29.63 in 9.0 mi SSE 13.8 mph - 0.01 in   Unknown
9:55 AM 51.8 °F 48.2 °F 88% 29.65 in 8.0 mi SSE 11.5 mph - 0.02 in   Unknown
10:15 AM 51.8 °F 48.2 °F 88% 29.64 in 10.0 mi SSE 11.5 mph - 0.01 in   Unknown
10:35 AM 51.8 °F 50.0 °F 94% 29.64 in 10.0 mi SE 10.4 mph - 0.01 in   Unknown
10:55 AM 51.8 °F 50.0 °F 94% 29.64 in 10.0 mi SE 8.1 mph - 0.01 in   Unknown
11:15 AM 53.6 °F 50.0 °F 88% 29.63 in 10.0 mi SE 10.4 mph - N/A   Unknown
11:35 AM 53.6 °F 50.0 °F 88% 29.62 in 10.0 mi SE 11.5 mph - N/A   Mostly Cloudy
11:55 AM 53.6 °F 50.0 °F 88% 29.62 in 4.0 mi SSE 13.8 mph 19.6 mph N/A   Mostly Cloudy
12:15 PM 51.8 °F 48.2 °F 88% 29.62 in 4.0 mi SSE 11.5 mph - N/A   Mostly Cloudy
12:35 PM 51.8 °F 48.2 °F 88% 29.60 in 4.0 mi SE 12.7 mph - 0.02 in   Mostly Cloudy
12:55 PM 51.8 °F 48.2 °F 88% 29.60 in 4.0 mi SE 10.4 mph - 0.05 in   Overcast
1:15 PM 51.8 °F 48.2 °F 88% 29.60 in 4.0 mi SE 12.7 mph - 0.05 in   Overcast
1:35 PM 51.8 °F 48.2 °F 88% 29.59 in 4.0 mi SE 16.1 mph - 0.07 in   Overcast
1:55 PM 50.0 °F 48.2 °F 94% 29.58 in 3.0 mi SE 13.8 mph - 0.11 in   Overcast
2:15 PM 50.0 °F 48.2 °F 94% 29.58 in 3.0 mi SE 16.1 mph - 0.01 in   Overcast
2:35 PM 50.0 °F 48.2 °F 94% 29.57 in 3.0 mi SE 13.8 mph - 0.02 in   Overcast
2:55 PM 50.0 °F 48.2 °F 94% 29.56 in 3.0 mi SSE 10.4 mph - 0.03 in   Overcast
3:15 PM 51.8 °F 48.2 °F 88% 29.56 in 10.0 mi SSE 11.5 mph - N/A   Unknown
3:35 PM 51.8 °F 48.2 °F 88% 29.55 in 10.0 mi SE 10.4 mph - N/A   Unknown
3:55 PM 51.8 °F 48.2 °F 88% 29.54 in 10.0 mi SSE 9.2 mph - N/A   Unknown
4:15 PM 51.8 °F 48.2 °F 88% 29.54 in 10.0 mi SSE 9.2 mph - N/A   Unknown
4:35 PM 51.8 °F 48.2 °F 88% 29.53 in 10.0 mi SSE 9.2 mph - N/A   Overcast
4:55 PM 51.8 °F 48.2 °F 88% 29.52 in 10.0 mi SE 8.1 mph - N/A   Overcast
5:15 PM 51.8 °F 48.2 °F 88% 29.51 in 10.0 mi SSE 8.1 mph - N/A   Overcast
5:35 PM 51.8 °F 48.2 °F 88% 29.50 in 10.0 mi SE 10.4 mph - 0.01 in   Overcast
5:55 PM 51.8 °F 48.2 °F 88% 29.50 in 10.0 mi SSE 9.2 mph - 0.01 in   Overcast
6:15 PM 51.8 °F 48.2 °F 88% 29.50 in 10.0 mi SSE 12.7 mph - N/A   Unknown
6:35 PM 51.8 °F 50.0 °F 94% 29.51 in 3.0 mi SE 11.5 mph - 0.05 in   Unknown
6:55 PM 51.8 °F 50.0 °F 94% 29.51 in 2.5 mi SE 10.4 mph - 0.09 in   Unknown
7:15 PM 50.0 °F 50.0 °F 100% 29.51 in 2.5 mi SE 9.2 mph - N/A   Unknown
7:35 PM 51.8 °F 50.0 °F 94% 29.51 in 10.0 mi SE 9.2 mph - N/A   Unknown
7:55 PM 51.8 °F 50.0 °F 94% 29.50 in 10.0 mi SSE 6.9 mph - N/A   Unknown
8:15 PM 51.8 °F 51.8 °F 100% 29.51 in 10.0 mi SSE 6.9 mph - N/A   Unknown
8:35 PM 51.8 °F 51.8 °F 100% 29.51 in 10.0 mi SSE 5.8 mph - 0.01 in   Unknown
8:55 PM 51.8 °F 51.8 °F 100% 29.50 in 10.0 mi SSE 5.8 mph - 0.01 in   Unknown
9:15 PM 51.8 °F 51.8 °F 100% 29.49 in 10.0 mi South 6.9 mph - N/A   Unknown
9:35 PM 51.8 °F 51.8 °F 100% 29.49 in 10.0 mi SE 8.1 mph - 0.03 in   Unknown
9:55 PM 51.8 °F 50.0 °F 94% 29.49 in 10.0 mi SSE 8.1 mph - 0.03 in   Unknown
10:15 PM 53.6 °F 51.8 °F 94% 29.48 in 10.0 mi SSE 6.9 mph - N/A   Unknown
10:35 PM 53.6 °F 53.6 °F 100% 29.48 in 10.0 mi South 10.4 mph 17.3 mph N/A   Unknown
10:55 PM 55.4 °F 53.6 °F 94% 29.47 in 10.0 mi South 11.5 mph 16.1 mph N/A   Unknown
11:15 PM 55.4 °F 53.6 °F 94% 29.48 in 10.0 mi South 11.5 mph 20.7 mph N/A   Unknown
11:35 PM 57.2 °F 53.6 °F 88% 29.48 in 10.0 mi South 16.1 mph 23.0 mph N/A   Unknown
11:55 PM 57.2 °F 53.6 °F 88% 29.47 in 10.0 mi SSW 15.0 mph 25.3 mph N/A   Unknown